Weather in Alexandria

Romania     43°58′06″N   25°19′36″E
temp.,
°C
wind,
m/s
gust,
m/s
humid.,
%
clouds,
%
prec.,
mm/h
press.,
hPa
HPBL,
m
4 march, thu
thu423:00+8sse22680 0.0 102822
02:00+7ssw22720 0.0 102722
05:00+6sw22730 0.0 102522
08:00+7sw22730 0.0 102336
11:00+13wsw34530 0.0 1021442
14:00+16wsw46400 0.0 1018812
17:00+16wsw37431 0.0 1016371
20:00+11wsw34530 0.0 101652
5 march, fri
fri523:00+10wsw45590 0.0 101689
02:00+8wsw47620 0.0 1016120
05:00+7wsw47620 0.0 1015122
08:00+8wsw510640 0.0 1015251
11:00+14w610406 0.0 1015778
14:00+17w710305 0.0 10131682
17:00+15w610382 0.0 10131222
20:00+12w5144932 0.0 1016419
6 march, sat
sat623:00+10w41260100 0.0 1017387
02:00+8wsw4773100 0.0 1019190
05:00+7ene4582100 0.0 1020163
08:00+5e81268100 0.0 1023617
11:00+2ene81281100 0.0 1025626
14:00+1ene6994100 0.6 1027577
17:00+2e4690100 0.6 1028508
20:00+2sw1290100 0.8 1031109
7 march, sun
sun723:00+1n2290100 0.0 103241
02:00+1n2384100 0.0 103261
05:000ne227392 0.0 103122
08:00+2e116595 0.0 103059
11:00+5wsw115459 0.0 1029763
14:00+7w234840 0.0 10261297
17:00+7wsw23430 0.0 10241251
20:00+5wnw22580 0.0 102323
8 march, mon
mon823:00+3w12610 0.0 102222
02:00+2w12650 0.0 102022
05:00+2w126840 0.0 101822
08:00+3w226630 0.0 1018106
11:00+7w355157 0.0 1018746
14:00+11wnw584340 0.0 10161416
17:00+11wnw363883 0.0 10161254
20:00+7sse114664 0.0 101722